Location: Wapato
(46.4478°N, 120.4212°W)
Time: 01:44:28
(UTC+00:00)

Explorer 7 - Visible Passes

Search period start: 14 May 2026 00:00
Search period end: 24 May 2026 00:00
Orbit: 427 x 536 km, 50.2° (Epoch: 13 May)

Date Brightness Start Highest point End Pass type
(mag) Time Alt. Az. Time Alt. Az. Time Alt. Az.
17 May 8.0 11:44:37 10° SSW 11:47:36 26° SE 11:50:40 10° E visible
18 May 8.1 11:17:11 11° SSW 11:19:53 24° SE 11:22:50 10° E visible
19 May 8.1 10:50:27 16° S 10:52:10 22° SE 10:55:00 10° E visible
20 May 8.1 10:23:40 19° SSE 10:24:26 20° SE 10:27:08 10° E visible
21 May 8.2 09:56:48 19° SE 09:56:48 19° SE 09:59:15 10° E visible
21 May 6.4 11:31:04 10° WSW 11:34:34 89° SSE 11:38:11 10° ENE visible
22 May 8.6 09:29:54 16° ESE 09:29:54 16° ESE 09:31:20 10° E visible
22 May 6.3 11:04:06 16° WSW 11:06:46 84° SSE 11:10:23 10° ENE visible
23 May 9.0 09:02:56 12° ESE 09:02:56 12° ESE 09:03:24 10° E visible
23 May 6.3 10:37:08 26° WSW 10:38:59 80° SSE 10:42:33 10° ENE visible
